TimeCDT,TemperatureF,Dew PointF,Humidity,Sea Level PressureIn,VisibilityMPH,Wind Direction,Wind SpeedMPH,Gust SpeedMPH,PrecipitationIn,Events,Conditions,WindDirDegrees,DateUTC
12:15 AM,33.6,25.7,73,30.14,10.0,South,4.6,-,N/A,,Clear,170,2012-10-08 05:15:00
12:35 AM,33.1,25.9,75,30.14,10.0,South,3.5,-,N/A,,Clear,170,2012-10-08 05:35:00
12:55 AM,33.1,25.7,74,30.14,10.0,South,5.8,-,N/A,,Clear,180,2012-10-08 05:55:00
1:15 AM,33.3,26.2,75,30.14,10.0,South,5.8,-,N/A,,Clear,180,2012-10-08 06:15:00
1:35 AM,33.4,26.4,75,30.14,10.0,South,5.8,-,N/A,,Clear,180,2012-10-08 06:35:00
1:55 AM,33.8,26.6,75,30.14,10.0,South,5.8,-,N/A,,Clear,180,2012-10-08 06:55:00
2:15 AM,33.4,26.6,76,30.14,10.0,South,6.9,-,N/A,,Clear,180,2012-10-08 07:15:00
2:35 AM,33.8,27.1,77,30.14,10.0,South,6.9,-,N/A,,Clear,180,2012-10-08 07:35:00
2:55 AM,33.4,27.3,78,30.13,10.0,South,6.9,-,N/A,,Clear,180,2012-10-08 07:55:00
3:15 AM,33.8,27.3,77,30.13,10.0,South,8.1,-,N/A,,Clear,170,2012-10-08 08:15:00
3:35 AM,32.9,27.3,80,30.12,10.0,South,5.8,-,N/A,,Clear,170,2012-10-08 08:35:00
3:55 AM,32.2,27.5,83,30.12,10.0,South,5.8,-,N/A,,Clear,170,2012-10-08 08:55:00
4:15 AM,32.2,27.5,83,30.12,10.0,South,5.8,-,N/A,,Clear,170,2012-10-08 09:15:00
4:35 AM,32.2,27.5,83,30.12,10.0,South,4.6,-,N/A,,Clear,170,2012-10-08 09:35:00
4:55 AM,32.0,27.5,83,30.12,10.0,South,5.8,-,N/A,,Clear,170,2012-10-08 09:55:00
5:15 AM,32.0,28.4,87,30.12,10.0,South,5.8,-,N/A,,Clear,170,2012-10-08 10:15:00
5:35 AM,32.0,27.5,83,30.12,10.0,South,6.9,-,N/A,,Clear,170,2012-10-08 10:35:00
5:55 AM,32.0,27.9,85,30.12,10.0,South,6.9,-,N/A,,Clear,170,2012-10-08 10:55:00
6:15 AM,32.0,28.0,85,30.12,10.0,South,6.9,-,N/A,,Clear,170,2012-10-08 11:15:00
6:35 AM,32.2,28.2,85,30.12,10.0,South,6.9,-,N/A,,Clear,170,2012-10-08 11:35:00
6:55 AM,32.0,28.2,86,30.12,10.0,South,5.8,-,N/A,,Clear,170,2012-10-08 11:55:00
7:15 AM,32.0,28.4,87,30.12,10.0,South,5.8,-,N/A,,Clear,170,2012-10-08 12:15:00
7:35 AM,32.2,28.4,86,30.13,10.0,South,5.8,-,N/A,,Clear,180,2012-10-08 12:35:00
7:55 AM,34.0,29.3,83,30.13,10.0,South,6.9,-,N/A,,Clear,190,2012-10-08 12:55:00
8:15 AM,36.7,30.0,77,30.13,10.0,South,10.4,-,N/A,,Clear,190,2012-10-08 13:15:00
8:35 AM,37.9,30.9,76,30.13,10.0,South,8.1,-,N/A,,Clear,190,2012-10-08 13:35:00
8:55 AM,40.3,31.8,72,30.13,10.0,SSW,9.2,-,N/A,,Clear,200,2012-10-08 13:55:00
9:15 AM,43.0,32.7,67,30.13,10.0,SSW,10.4,-,N/A,,Clear,200,2012-10-08 14:15:00
9:35 AM,45.0,32.9,63,30.13,10.0,SSW,11.5,-,N/A,,Clear,200,2012-10-08 14:35:00
9:55 AM,47.5,33.1,57,30.13,10.0,SW,13.8,-,N/A,,Clear,220,2012-10-08 14:55:00
10:15 AM,49.8,33.4,53,30.12,10.0,South,10.4,-,N/A,,Clear,190,2012-10-08 15:15:00
10:35 AM,52.0,33.1,49,30.12,10.0,SSW,12.7,-,N/A,,Clear,210,2012-10-08 15:35:00
10:55 AM,53.6,33.6,47,30.11,10.0,SSW,16.1,19.6,N/A,,Clear,210,2012-10-08 15:55:00
11:15 AM,55.2,33.8,44,30.11,10.0,SSW,12.7,-,N/A,,Clear,210,2012-10-08 16:15:00
11:35 AM,55.8,32.2,41,30.10,10.0,SW,16.1,21.9,N/A,,Clear,230,2012-10-08 16:35:00
11:55 AM,56.5,32.2,40,30.10,10.0,SW,17.3,26.5,N/A,,Clear,230,2012-10-08 16:55:00
12:15 PM,57.0,31.6,38,30.09,10.0,SW,20.7,28.8,N/A,,Clear,220,2012-10-08 17:15:00
12:35 PM,57.2,30.2,36,30.08,10.0,SW,20.7,28.8,N/A,,Clear,220,2012-10-08 17:35:00
12:55 PM,58.1,31.5,36,30.07,10.0,SW,15.0,-,N/A,,Clear,220,2012-10-08 17:55:00
1:15 PM,58.5,30.6,35,30.05,10.0,SSW,19.6,28.8,N/A,,Clear,200,2012-10-08 18:15:00
1:35 PM,58.6,29.5,33,30.04,10.0,SSW,23.0,28.8,N/A,,Clear,210,2012-10-08 18:35:00
1:55 PM,59.0,29.8,33,30.04,10.0,SSW,18.4,28.8,N/A,,Clear,210,2012-10-08 18:55:00
2:15 PM,59.2,30.4,34,30.03,10.0,SSW,25.3,29.9,N/A,,Clear,210,2012-10-08 19:15:00
2:35 PM,59.5,30.9,34,30.02,10.0,SSW,24.2,28.8,N/A,,Clear,210,2012-10-08 19:35:00
2:55 PM,59.4,30.9,34,30.01,10.0,SSW,19.6,27.6,N/A,,Clear,210,2012-10-08 19:55:00
3:15 PM,59.5,30.6,33,30.00,10.0,SSW,20.7,25.3,N/A,,Clear,210,2012-10-08 20:15:00
3:35 PM,59.5,30.7,34,30.00,10.0,SSW,18.4,25.3,N/A,,Clear,200,2012-10-08 20:35:00
3:55 PM,59.2,29.8,33,29.99,10.0,SSW,18.4,27.6,N/A,,Clear,210,2012-10-08 20:55:00
4:15 PM,59.2,30.0,33,29.98,10.0,SSW,16.1,23.0,N/A,,Clear,200,2012-10-08 21:15:00
4:35 PM,59.0,30.2,34,29.98,10.0,SSW,19.6,27.6,N/A,,Clear,210,2012-10-08 21:35:00
4:55 PM,58.6,30.4,34,29.98,10.0,SSW,16.1,24.2,N/A,,Clear,210,2012-10-08 21:55:00
5:15 PM,57.9,30.4,35,29.98,10.0,SSW,17.3,25.3,N/A,,Clear,200,2012-10-08 22:15:00
5:35 PM,57.2,29.8,35,29.98,10.0,SSW,19.6,24.2,N/A,,Clear,210,2012-10-08 22:35:00
5:55 PM,56.1,30.4,38,29.98,10.0,SSW,16.1,23.0,N/A,,Clear,210,2012-10-08 22:55:00
6:15 PM,54.7,30.9,40,29.98,10.0,SSW,11.5,-,N/A,,Clear,200,2012-10-08 23:15:00
6:35 PM,53.2,31.1,43,29.98,10.0,SSW,11.5,-,N/A,,Clear,200,2012-10-08 23:35:00
6:55 PM,52.2,31.3,45,29.98,10.0,South,8.1,-,N/A,,Clear,190,2012-10-08 23:55:00
7:15 PM,50.5,31.8,49,29.99,10.0,South,5.8,-,N/A,,Clear,180,2012-10-09 00:15:00
7:35 PM,48.7,32.0,52,29.99,10.0,South,8.1,-,N/A,,Clear,180,2012-10-09 00:35:00
7:55 PM,48.0,32.0,54,29.99,10.0,South,5.8,-,N/A,,Clear,170,2012-10-09 00:55:00
8:15 PM,47.1,32.4,57,29.99,10.0,South,6.9,-,N/A,,Clear,170,2012-10-09 01:15:00
8:35 PM,46.6,32.5,58,29.99,10.0,South,8.1,-,N/A,,Clear,170,2012-10-09 01:35:00
8:55 PM,46.4,32.0,57,29.99,10.0,South,8.1,-,N/A,,Clear,170,2012-10-09 01:55:00
9:15 PM,46.6,32.9,59,30.00,10.0,South,6.9,-,N/A,,Clear,170,2012-10-09 02:15:00
9:35 PM,47.1,33.3,59,30.00,10.0,South,5.8,-,N/A,,Clear,170,2012-10-09 02:35:00
9:55 PM,47.7,33.3,57,30.00,10.0,South,10.4,-,N/A,,Clear,190,2012-10-09 02:55:00
10:15 PM,48.0,32.9,56,30.00,10.0,South,8.1,-,N/A,,Clear,190,2012-10-09 03:15:00
10:35 PM,48.2,33.8,58,30.00,10.0,South,11.5,-,N/A,,Clear,190,2012-10-09 03:35:00
10:55 PM,47.7,33.1,57,30.00,10.0,South,11.5,-,N/A,,Clear,190,2012-10-09 03:55:00
11:15 PM,47.3,33.1,58,29.99,10.0,South,10.4,-,N/A,,Clear,190,2012-10-09 04:15:00
11:35 PM,46.4,33.3,60,29.99,10.0,South,9.2,-,N/A,,Clear,190,2012-10-09 04:35:00
11:55 PM,46.4,33.8,62,29.98,10.0,South,9.2,17.3,N/A,,Clear,180,2012-10-09 04:55:00